Dixon AP, Dixon, WY, WY

10:58 AM MST on December 17, 2017 (GMT -0700)
Dixon AP, Dixon, WY

Weather History for KDWX - April, 2014

Change the Weather History Date:

Friday, April 25, 2014

  Actual Average (KCAG) Record (KCAG)
Temperature  
Mean Temperature 50 °F -  
Max Temperature 68 °F 58 °F 74 °F (2012)
Min Temperature 33 °F 28 °F 22 °F (2013)
Degree Days  
Heating Degree Days 15    
Moisture  
Dew Point 21 °F    
Average Humidity 36    
Maximum Humidity 72    
Minimum Humidity 14    
Precipitation  
Precipitation 0.00 in - - ()
Sea Level Pressure  
Sea Level Pressure 29.85 in    
Wind  
Wind Speed 7 mph (South)    
Max Wind Speed 20 mph    
Max Gust Speed 30 mph    
Visibility 10 miles    
Events      
Averages and records for this station are not official NWS values.
T = Trace of Precipitation, MM = Missing Value Source: NWS Daily Summary

Daily Weather History Graph

Daily Weather History Graph

Search for Another Location

Airport or City:

Trip Planner

Search our weather history database for the weather conditions in past years. The results will help you decide how hot, cold, wet, or windy it might be!

Date:

Astronomy

Apr. 25, 2014 Rise Set
Actual Time 6:15 AM MDT 8:00 PM MDT
Civil Twilight 5:46 AM MDT 8:29 PM MDT
Nautical Twilight 5:11 AM MDT 9:05 PM MDT
Astronomical Twilight 4:33 AM MDT 9:43 PM MDT
Moon 4:07 AM MDT (4/25) 4:24 PM MDT (4/25)
Length of Visible Light 14h 43m
Length of Day
13h 44m
Waning Crescent, 15% of the Moon is Illuminated
Apr 25
Waning Crescent
Apr 29
New
May 6
First Quarter
May 14
Full
May 21
Last Quarter

Hourly Weather History & Observations

Time (MDT) Temp. Windchill Dew Point Humidity Pressure Visibility Wind Dir Wind Speed Gust Speed Precip Events Conditions
12:15 AM 43.0 °F 40.3 °F 30.9 °F 62% 30.03 in 10.0 mi East 4.6 mph - N/A   Overcast
12:35 AM 42.3 °F 40.5 °F 30.6 °F 63% 30.03 in 10.0 mi East 3.5 mph - N/A   Overcast
12:55 AM 40.3 °F 36.3 °F 29.3 °F 65% 30.02 in 10.0 mi ENE 5.8 mph - N/A   Mostly Cloudy
1:15 AM 37.9 °F - 27.5 °F 66% 30.02 in 10.0 mi Calm Calm - N/A   Scattered Clouds
1:35 AM 37.4 °F 32.1 °F 27.3 °F 67% 30.02 in 10.0 mi NE 6.9 mph - N/A   Clear
1:55 AM 39.0 °F 34.8 °F 26.2 °F 60% 30.01 in 10.0 mi ENE 5.8 mph - N/A   Clear
2:15 AM 38.3 °F 33.9 °F 25.7 °F 61% 30.01 in 10.0 mi ENE 5.8 mph - N/A   Clear
2:36 AM 38.1 °F 34.6 °F 25.9 °F 61% 29.99 in 10.0 mi East 4.6 mph - N/A   Clear
2:55 AM 38.7 °F - 25.3 °F 59% 29.99 in 10.0 mi Calm Calm - N/A   Clear
3:15 AM 36.7 °F - 25.7 °F 64% 29.99 in 10.0 mi Calm Calm - N/A   Scattered Clouds
3:35 AM 36.5 °F - 25.5 °F 64% 29.99 in 10.0 mi Calm Calm - N/A   Mostly Cloudy
3:55 AM 34.2 °F 30.0 °F 25.7 °F 71% 29.99 in 10.0 mi NE 4.6 mph - N/A   Mostly Cloudy
4:15 AM 34.3 °F 31.4 °F 24.8 °F 68% 29.99 in 10.0 mi East 3.5 mph - N/A   Clear
4:35 AM 33.4 °F - 25.2 °F 72% 29.98 in 10.0 mi Calm Calm - N/A   Scattered Clouds
4:55 AM 34.2 °F 31.2 °F 24.8 °F 69% 29.97 in 10.0 mi East 3.5 mph - N/A   Mostly Cloudy
5:15 AM 35.2 °F 31.2 °F 25.5 °F 68% 29.95 in 10.0 mi SSE 4.6 mph - N/A   Mostly Cloudy
5:35 AM 34.2 °F 30.0 °F 25.7 °F 71% 29.95 in 10.0 mi East 4.6 mph - N/A   Mostly Cloudy
5:55 AM 35.8 °F 31.9 °F 25.7 °F 67% 29.95 in 10.0 mi East 4.6 mph - N/A   Mostly Cloudy
6:15 AM 36.9 °F 33.1 °F 25.5 °F 64% 29.94 in 10.0 mi ENE 4.6 mph - N/A   Clear
6:35 AM 38.3 °F 33.2 °F 25.0 °F 59% 29.94 in 10.0 mi NE 6.9 mph - N/A   Clear
6:55 AM 39.0 °F - 25.0 °F 57% 29.94 in 10.0 mi Calm Calm - N/A   Scattered Clouds
7:15 AM 40.3 °F - 26.4 °F 58% 29.93 in 10.0 mi Calm Calm - N/A   Clear
7:35 AM 41.7 °F - 27.1 °F 56% 29.93 in 10.0 mi Calm Calm - N/A   Clear
7:55 AM 43.3 °F - 27.3 °F 53% 29.92 in 10.0 mi Calm Calm - N/A   Clear
8:15 AM 44.6 °F - 27.9 °F 52% 29.92 in 10.0 mi Calm Calm - N/A   Clear
8:35 AM 46.8 °F - 27.7 °F 47% 29.92 in 10.0 mi Calm Calm - N/A   Clear
8:55 AM 48.9 °F - 28.4 °F 45% 29.92 in 10.0 mi Calm Calm - N/A   Scattered Clouds
9:15 AM 51.3 °F - 23.0 °F 33% 29.92 in 10.0 mi West 3.5 mph - N/A   Clear
9:35 AM 53.8 °F - 20.1 °F 27% 29.92 in 10.0 mi SSW 12.7 mph 17.3 mph N/A   Scattered Clouds
9:55 AM 54.0 °F - 17.8 °F 24% 29.92 in 10.0 mi SSW 17.3 mph - N/A   Scattered Clouds
10:15 AM 55.6 °F - 18.7 °F 24% 29.91 in 10.0 mi SSW 15.0 mph 19.6 mph N/A   Scattered Clouds
10:35 AM 56.3 °F - 18.5 °F 23% 29.91 in 10.0 mi SSW 15.0 mph 20.7 mph N/A   Scattered Clouds
10:55 AM 57.2 °F - 19.4 °F 23% 29.91 in 10.0 mi SW 17.3 mph 23.0 mph N/A   Clear
11:15 AM 57.2 °F - 18.7 °F 22% 29.90 in 10.0 mi SW 12.7 mph 18.4 mph N/A   Clear
11:35 AM 60.6 °F - 18.9 °F 20% 29.89 in 10.0 mi South 10.4 mph 21.9 mph N/A   Clear
11:55 AM 62.4 °F - 18.7 °F 19% 29.88 in 10.0 mi SSW 8.1 mph 27.6 mph N/A   Clear
12:15 PM 63.3 °F - 18.0 °F 17% 29.87 in 10.0 mi South 13.8 mph 24.2 mph N/A   Clear
12:35 PM 64.4 °F - 20.8 °F 19% 29.86 in 10.0 mi SW 13.8 mph 21.9 mph N/A   Clear
12:55 PM 65.3 °F - 21.6 °F 19% 29.84 in 10.0 mi SW 13.8 mph 23.0 mph N/A   Clear
1:15 PM 65.8 °F - 19.9 °F 17% 29.83 in 10.0 mi SSW 9.2 mph 23.0 mph N/A   Clear
1:35 PM 66.0 °F - 20.3 °F 17% 29.81 in 10.0 mi SSW 12.7 mph 21.9 mph N/A   Clear
1:55 PM 66.6 °F - 18.7 °F 16% 29.81 in 10.0 mi WSW 11.5 mph 24.2 mph N/A   Clear
2:15 PM 67.6 °F - 20.8 °F 17% 29.80 in 10.0 mi SSW 17.3 mph 25.3 mph N/A   Scattered Clouds
2:35 PM 66.2 °F - 18.5 °F 16% 29.80 in 10.0 mi South 13.8 mph 21.9 mph N/A   Scattered Clouds
2:55 PM 65.3 °F - 18.1 °F 16% 29.79 in 10.0 mi SW 12.7 mph - N/A   Clear
3:15 PM 64.9 °F - 19.4 °F 17% 29.78 in 10.0 mi SW 8.1 mph - N/A   Mostly Cloudy
3:35 PM 64.6 °F - 18.0 °F 17% 29.77 in 10.0 mi SW 13.8 mph 27.6 mph N/A   Mostly Cloudy
3:55 PM 65.3 °F - 16.5 °F 15% 29.76 in 10.0 mi WSW 15.0 mph 21.9 mph N/A   Scattered Clouds
4:15 PM 64.6 °F - 15.1 °F 15% 29.75 in 10.0 mi SW 15.0 mph 27.6 mph N/A   Clear
4:35 PM 65.1 °F - 14.9 °F 14% 29.74 in 10.0 mi SW 18.4 mph 27.6 mph N/A   Clear
4:55 PM 67.1 °F - 15.3 °F 14% 29.74 in 10.0 mi SSW 16.1 mph 29.9 mph N/A   Clear
5:15 PM 67.6 °F - 16.0 °F 14% 29.72 in 10.0 mi SW 12.7 mph 27.6 mph N/A   Clear
5:35 PM 67.1 °F - 16.9 °F 15% 29.71 in 10.0 mi SSW 16.1 mph 20.7 mph N/A   Clear
5:55 PM 64.9 °F - 15.8 °F 15% 29.71 in 10.0 mi South 19.6 mph 29.9 mph N/A   Scattered Clouds
6:15 PM 64.4 °F - 15.4 °F 15% 29.71 in 10.0 mi South 16.1 mph 28.8 mph N/A   Scattered Clouds
6:35 PM 63.7 °F - 14.5 °F 15% 29.70 in 10.0 mi South 18.4 mph 26.5 mph N/A   Clear
6:55 PM 62.6 °F - 14.4 °F 15% 29.69 in 10.0 mi South 18.4 mph 25.3 mph N/A   Clear
7:15 PM 62.2 °F - 14.2 °F 15% 29.69 in 10.0 mi South 12.7 mph 19.6 mph N/A   Clear
7:35 PM 60.1 °F - 15.4 °F 18% 29.69 in 10.0 mi South 10.4 mph 16.1 mph N/A   Clear
7:55 PM 58.1 °F - 15.4 °F 19% 29.69 in 10.0 mi South 8.1 mph - N/A   Clear
8:15 PM 57.9 °F - 14.0 °F 18% 29.69 in 10.0 mi South 8.1 mph - N/A   Clear
8:35 PM 54.0 °F - 15.8 °F 22% 29.69 in 10.0 mi South 6.9 mph - N/A   Clear
8:55 PM 55.9 °F - 13.5 °F 19% 29.70 in 10.0 mi South 6.9 mph - N/A   Clear
9:15 PM 56.8 °F - 13.5 °F 18% 29.71 in 10.0 mi SSW 8.1 mph - N/A   Clear
9:35 PM 54.7 °F - 14.4 °F 20% 29.70 in 10.0 mi South 8.1 mph - N/A   Clear
10:15 PM 51.3 °F - 14.5 °F 23% 29.70 in 10.0 mi SW 5.8 mph - N/A   Scattered Clouds
10:35 PM 49.1 °F - 17.8 °F 29% 29.69 in 10.0 mi West 3.5 mph - N/A   Mostly Cloudy
10:55 PM 50.0 °F - 18.0 °F 28% 29.69 in 10.0 mi Calm Calm - N/A   Overcast
11:15 PM 45.9 °F - 23.9 °F 42% 29.68 in 10.0 mi Calm Calm - N/A   Overcast
11:35 PM 49.1 °F - 18.9 °F 30% 29.67 in 10.0 mi WNW 4.6 mph - N/A   Overcast
11:55 PM 48.7 °F - 19.6 °F 32% 29.68 in 10.0 mi Calm Calm - N/A   Overcast